DC7RY Weather Reports


time (UTC)temp
F
wind
direction
speed
knots
gust
knots
rain 1hr
in
rain 24hr
in
rain mn
in
humidity
%
barometer
mb
20260507062019 50 270 0.9 4.3 0.05 0.28 0.26 99 1004.4
20260507061025 50 279 0.9 4.3 0.06 0.28 0.26 99 1004.3
20260507060017 50 276 0.9 7.0 0.08 0.26 0.24 99 1004.1
20260507055025 50 274 1.7 8.7 0.09 0.26 0.24 99 1003.8
20260507054017 50 275 2.6 8.7 0.08 0.25 0.23 99 1003.9
20260507053025 50 271 0.9 4.3 0.08 0.25 0.23 99 1003.8
20260507052017 51 275 1.7 7.0 0.06 0.23 0.21 99 1003.7
20260507051025 51 266 0.9 4.3 0.06 0.22 0.20 99 1003.5
20260507050032 51 269 0.9 1.7 0.07 0.18 0.16 99 1003.5
20260507045024 51 276 0.0 4.3 0.06 0.17 0.15 99 1003.4
20260507044032 51 279 0.9 4.3 0.07 0.17 0.15 99 1003.2
20260507043023 51 271 0.9 4.3 0.07 0.17 0.15 99 1003.0
20260507042026 51 265 0.9 4.3 0.08 0.17 0.15 99 1003.1
20260507041018 51 270 0.0 1.7 0.07 0.16 0.14 99 1002.9
20260507040025 51 278 0.0 1.7 0.02 0.11 0.09 99 1002.9
20260507035017 51 270 0.0 1.7 0.02 0.11 0.09 99 1002.8
20260507034025 51 272 0.9 4.3 0.03 0.10 0.08 99 1002.8
20260507033017 52 273 0.0 4.3 0.03 0.10 0.08 99 1002.6
20260507032024 52 270 0.0 1.7 0.02 0.09 0.07 99 1002.6
20260507031017 52 270 0.0 1.7 0.03 0.09 0.07 99 1002.6
20260507030024 52 274 0.0 1.7 0.03 0.09 0.07 99 1002.7
20260507025017 52 0.0 1.7 0.03 0.09 0.07 99 1002.7
20260507024024 52 272 0.0 1.7 0.02 0.07 0.05 99 1002.7
20260507023030 52 0.0 0.0 0.03 0.07 0.05 99 1002.6
20260507022022 52 0.0 0.0 0.03 0.07 0.05 99 1002.8
20260507021029 52 0.0 0.0 0.02 0.06 0.04 99 1002.5
20260507020020 52 0.0 0.0 0.02 0.06 0.04 99 1002.4
20260507015027 52 0.0 0.0 0.02 0.06 0.04 99 1002.4
20260507014037 53 0.0 0.0 0.01 0.05 0.03 99 1002.4
20260507013021 53 0.0 0.0 0.00 0.04 0.02 99 1002.5
20260507012033 53 0.0 0.0 0.01 0.05 0.02 99 1002.3
20260507011022 53 0.0 0.0 0.01 0.05 0.02 99 1002.2
20260507010017 53 0.0 0.0 0.02 0.05 0.02 99 1002.2
20260507005025 53 0.0 0.0 0.02 0.05 0.02 99 1002.2
20260507004029 53 0.0 0.0 0.02 0.05 0.02 99 1002.2
20260507003021 53 0.0 0.0 0.02 0.05 0.02 99 1002.2
20260507002029 53 0.0 0.0 0.01 0.04 0.01 99 1002.3
20260507001021 53 0.0 0.0 0.01 0.04 0.01 99 1002.2
20260507000029 54 0.0 0.0 0.00 0.03 0.00 99 1002.2
20260506235019 54 0.0 0.0 0.00 0.03 0.00 99 1002.1
20260506234020 54 0.0 0.0 0.00 0.03 0.00 99 1002.1
20260506233018 54 0.0 0.0 0.00 0.03 0.00 99 1002.1
20260506232027 54 0.0 0.0 0.00 0.03 0.00 99 1002.1
20260506231018 54 0.0 0.0 0.00 0.03 0.00 99 1002.0
20260506230025 54 0.0 0.0 0.00 0.03 0.00 99 1002.0
20260506225030 54 0.0 0.0 0.00 0.03 0.00 99 1001.9
20260506224022 54 0.0 0.0 0.02 0.03 0.00 99 1001.8
20260506223028 54 0.0 0.0 0.02 0.03 0.00 98 1001.8
20260506222018 54 0.0 0.0 0.02 0.03 0.00 98 1001.7
20260506221025 54 0.0 0.0 0.02 0.03 0.00 97 1001.6
20260506220017 54 0.0 0.0 0.02 0.03 0.00 97 1001.5
20260506215017 53 0.0 0.0 0.02 0.03 0.03 96 1001.4
20260506214025 53 0.0 0.0 0.00 0.01 0.01 96 1001.5
20260506213016 53 0.0 0.0 0.00 0.01 0.01 96 1001.3
20260506212024 53 0.0 0.0 0.00 0.01 0.01 96 1001.3
20260506211016 53 0.0 0.0 0.00 0.01 0.01 95 1001.2
20260506210024 54 0.0 0.0 0.00 0.01 0.01 94 1001.1
20260506205031 55 0.0 0.0 0.00 0.01 0.01 92 1001.0
20260506204021 56 0.0 0.0 0.00 0.01 0.01 91 1001.1
20260506203028 57 0.0 0.0 0.00 0.01 0.01 88 1001.2
20260506202020 57 0.0 0.0 0.00 0.01 0.01 85 1001.1
20260506201026 58 0.0 0.0 0.00 0.01 0.01 80 1001.0
20260506200031 58 102 0.0 1.7 0.00 0.01 0.01 79 1000.9
20260506195020 58 311 0.0 1.7 0.00 0.01 0.01 80 1000.8
20260506194027 58 0.0 0.0 0.00 0.01 0.01 84 1000.8
20260506193030 58 0.0 0.0 0.00 0.01 0.01 85 1000.8
20260506192019 57 270 0.0 1.7 0.00 0.01 0.01 85 1000.5
20260506191026 57 0.0 0.0 0.00 0.02 0.01 86 1000.3
20260506190019 57 0.0 0.0 0.00 0.03 0.01 87 1000.2
20260506185025 58 0.0 0.0 0.00 0.07 0.01 87 1000.1
20260506184033 58 0.0 0.0 0.00 0.11 0.01 86 1000.0
20260506183023 59 0.0 0.0 0.00 0.14 0.01 84 999.9
20260506182030 60 0.0 0.0 0.00 0.15 0.01 83 999.7
20260506181020 60 0.0 0.0 0.00 0.17 0.01 81 999.8
20260506180027 61 0.0 0.0 0.00 0.22 0.01 80 999.5
20260506175017 61 0.0 0.0 0.00 0.27 0.01 78 999.6
20260506174022 62 0.0 0.0 0.00 0.33 0.01 78 999.5
20260506173026 62 0.0 0.0 0.00 0.37 0.01 75 999.5
20260506172017 62 271 0.0 1.7 0.00 0.42 0.01 74 999.4
20260506171023 62 91 0.9 4.3 0.00 0.43 0.01 75 999.2
20260506170030 63 93 0.9 4.3 0.00 0.45 0.01 73 999.4
20260506165019 63 0.0 1.7 0.00 0.46 0.01 71 999.3
20260506164027 63 270 0.0 1.7 0.00 0.46 0.01 70 999.3
20260506163018 64 142 0.0 1.7 0.00 0.46 0.01 71 999.6
20260506162024 64 271 1.7 8.7 0.00 0.46 0.01 69 999.8
20260506161029 65 274 0.9 1.7 0.00 0.46 0.01 64 999.9
20260506160017 66 278 0.9 4.3 0.00 0.46 0.01 63 999.7
20260506155017 67 275 0.0 4.3 0.00 0.46 0.01 64 999.8
20260506154023 67 0.0 0.0 0.00 0.46 0.01 63 999.9
20260506153028 67 0.0 0.0 0.00 0.46 0.01 62 999.9
20260506152017 67 0.0 0.0 0.00 0.46 0.01 62 999.9
20260506151023 67 291 0.0 1.7 0.00 0.46 0.01 62 1000.0
20260506150029 68 270 0.0 1.7 0.00 0.46 0.01 62 999.9
20260506145020 68 314 0.0 7.0 0.00 0.46 0.01 62 999.9
20260506144027 69 0.0 0.0 0.00 0.46 0.01 59 1000.0
20260506143018 70 310 0.0 4.3 0.00 0.46 0.01 57 1000.2
20260506142025 70 282 0.9 4.3 0.00 0.46 0.01 56 1000.4
20260506141032 69 145 0.0 1.7 0.00 0.46 0.01 56 1000.2
20260506140024 69 0.0 0.0 0.00 0.46 0.01 58 1000.1
20260506135031 69 270 0.0 1.7 0.00 0.46 0.01 58 1000.1
20260506134021 69 0.0 1.7 0.00 0.46 0.01 58 1000.2
20260506133028 69 270 0.0 1.7 0.00 0.46 0.01 56 1000.3
20260506132020 68 0.0 0.0 0.00 0.46 0.01 58 1000.4
20260506131028 68 270 0.0 1.7 0.00 0.46 0.01 61 1000.4
20260506130020 68 260 0.0 4.3 0.00 0.46 0.01 62 1000.4
20260506125028 68 261 0.9 4.3 0.00 0.46 0.01 62 1000.4
20260506124020 68 280 0.9 7.0 0.00 0.46 0.01 58 1000.5
20260506123027 68 0.0 0.0 0.00 0.46 0.01 61 1000.5
20260506122019 67 282 0.9 4.3 0.00 0.46 0.01 61 1000.5
20260506121027 66 0.0 0.0 0.00 0.46 0.01 60 1000.4
20260506120018 66 0.0 0.0 0.00 0.46 0.01 67 1000.6
20260506115027 66 159 0.0 1.7 0.00 0.46 0.01 66 1000.5
20260506114017 66 44 0.0 1.7 0.00 0.46 0.01 65 1000.6
20260506113023 67 274 0.9 4.3 0.00 0.46 0.01 67 1000.7
20260506112030 68 0.0 0.0 0.00 0.46 0.01 67 1001.0
20260506111021 68 0.0 1.7 0.00 0.46 0.01 63 1000.9
20260506110029 67 124 0.0 1.7 0.00 0.46 0.01 62 1001.0
20260506105021 66 296 0.0 4.3 0.00 0.46 0.01 64 1000.8
20260506104028 66 289 0.9 7.0 0.00 0.46 0.01 66 1000.9
20260506103020 65 285 0.0 1.7 0.00 0.46 0.01 70 1000.9
20260506102027 64 0.0 0.0 0.00 0.46 0.01 70 1000.9
20260506101020 63 0.0 0.0 0.00 0.46 0.01 74 1000.9
20260506100027 62 135 0.0 1.7 0.00 0.46 0.01 76 1001.0
20260506095020 62 250 0.9 7.0 0.00 0.46 0.01 75 1001.0
20260506094027 62 291 0.9 4.3 0.00 0.46 0.01 76 1001.2
20260506093019 62 271 1.7 7.0 0.00 0.46 0.01 75 1001.2
20260506092026 61 297 0.0 4.3 0.00 0.46 0.01 77 1001.1
20260506091018 59 98 0.0 1.7 0.00 0.46 0.01 81 1001.0
20260506090026 59 292 0.9 4.3 0.00 0.46 0.01 85 1000.8
20260506085017 59 0.0 0.0 0.00 0.46 0.01 89 1000.5
20260506084024 59 263 0.9 7.0 0.00 0.46 0.01 86 1000.6
20260506083032 59 297 0.0 7.0 0.00 0.46 0.01 84 1000.5
20260506082024 59 262 0.0 4.3 0.00 0.46 0.01 86 1000.5
20260506081032 58 270 0.0 1.7 0.00 0.46 0.01 88 1000.4
20260506073029 57 240 0.0 1.7 0.00 0.46 0.01 99 1000.4
20260506072021 56 242 0.0 1.7 0.00 0.46 0.01 99 1000.2
20260506071028 56 268 0.0 7.0 0.00 0.46 0.01 99 1000.3